Time,TemperatureF,DewpointF,PressureIn,WindDirection,WindDirectionDegrees,WindSpeedMPH,WindSpeedGustMPH,Humidity,HourlyPrecipIn,Conditions,Clouds,dailyrainin,SolarRadiationWatts/m^2,SoftwareType,DateUTC
2013-08-16 00:00:00,60.0,59.0,-100.00,NW,325,1.0,3.0,98,0.00,,,0.00,0.000000,,2013-08-16 07:00:00,
2013-08-16 00:11:00,60.0,59.0,-100.00,NW,325,1.0,3.0,98,0.00,,,0.00,0.000000,,2013-08-16 07:11:00,
2013-08-16 00:42:00,59.0,59.0,-100.00,NE,45,2.0,4.0,99,0.00,,,0.00,0.000000,,2013-08-16 07:42:00,
2013-08-16 00:52:00,59.0,59.0,-100.00,NE,45,2.0,4.0,99,0.00,,,0.00,0.000000,,2013-08-16 07:52:00,
2013-08-16 01:01:00,59.0,59.0,-100.00,NE,45,2.0,4.0,99,0.00,,,0.00,0.000000,,2013-08-16 08:01:00,
2013-08-16 01:11:00,59.0,59.0,-100.00,NE,45,2.0,4.0,99,0.00,,,0.00,0.000000,,2013-08-16 08:11:00,
2013-08-16 01:42:00,59.0,59.0,-100.00,NE,35,2.0,3.0,99,0.00,,,0.00,0.000000,,2013-08-16 08:42:00,
2013-08-16 01:52:00,59.0,59.0,-100.00,NE,35,2.0,3.0,99,0.00,,,0.00,0.000000,,2013-08-16 08:52:00,
2013-08-16 02:01:00,59.0,59.0,-100.00,NE,35,2.0,3.0,99,0.00,,,0.00,0.000000,,2013-08-16 09:01:00,
2013-08-16 02:11:00,59.0,59.0,-100.00,NE,35,2.0,3.0,99,0.00,,,0.00,0.000000,,2013-08-16 09:11:00,
2013-08-16 02:13:00,60.0,60.0,-100.00,NE,36,1.0,3.0,99,0.00,,,0.00,0.000000,,2013-08-16 09:13:00,
2013-08-16 02:42:00,60.0,60.0,-100.00,NE,36,1.0,3.0,99,0.00,,,0.00,0.000000,,2013-08-16 09:42:00,
2013-08-16 02:53:00,60.0,60.0,-100.00,NE,36,1.0,3.0,99,0.00,,,0.00,0.000000,,2013-08-16 09:53:00,
2013-08-16 03:03:00,60.0,60.0,-100.00,NE,36,1.0,3.0,99,0.00,,,0.00,0.000000,,2013-08-16 10:03:00,
2013-08-16 03:42:00,60.0,60.0,-100.00,ENE,58,1.0,3.0,99,0.00,,,0.00,0.000000,,2013-08-16 10:42:00,
2013-08-16 03:52:00,60.0,60.0,-100.00,ENE,58,1.0,3.0,99,0.00,,,0.00,0.000000,,2013-08-16 10:52:00,
2013-08-16 04:02:00,60.0,60.0,-100.00,ENE,58,1.0,3.0,99,0.00,,,0.00,0.000000,,2013-08-16 11:02:00,
2013-08-16 04:12:00,60.0,60.0,-100.00,ENE,58,1.0,3.0,99,0.00,,,0.00,0.000000,,2013-08-16 11:12:00,
2013-08-16 04:42:00,60.0,60.0,-100.00,West,277,0.0,0.0,99,0.00,,,0.00,0.000000,,2013-08-16 11:42:00,
2013-08-16 04:52:00,60.0,60.0,-100.00,West,277,0.0,0.0,99,0.00,,,0.00,0.000000,,2013-08-16 11:52:00,
2013-08-16 05:02:00,60.0,60.0,-100.00,West,277,0.0,0.0,99,0.00,,,0.00,0.000000,,2013-08-16 12:02:00,
2013-08-16 05:12:00,60.0,60.0,-100.00,West,277,0.0,0.0,99,0.00,,,0.00,0.000000,,2013-08-16 12:12:00,
2013-08-16 05:42:00,60.0,60.0,-100.00,East,84,0.0,1.0,99,0.00,,,0.00,0.000000,,2013-08-16 12:42:00,
2013-08-16 05:52:00,60.0,60.0,-100.00,East,84,0.0,1.0,99,0.00,,,0.00,0.000000,,2013-08-16 12:52:00,
2013-08-16 06:02:00,60.0,60.0,-100.00,East,84,0.0,1.0,99,0.00,,,0.00,0.000000,,2013-08-16 13:02:00,
2013-08-16 06:11:00,60.0,60.0,-100.00,East,84,0.0,1.0,99,0.00,,,0.00,0.000000,,2013-08-16 13:11:00,
2013-08-16 06:42:00,59.0,59.0,-100.00,NE,34,1.0,2.0,99,0.00,,,0.00,0.000000,,2013-08-16 13:42:00,
2013-08-16 06:53:00,59.0,59.0,-100.00,NE,34,1.0,2.0,99,0.00,,,0.00,0.000000,,2013-08-16 13:53:00,
2013-08-16 07:01:00,59.0,59.0,-100.00,NE,34,1.0,2.0,99,0.00,,,0.00,0.000000,,2013-08-16 14:01:00,
2013-08-16 07:11:00,59.0,59.0,-100.00,NE,34,1.0,2.0,99,0.00,,,0.00,0.000000,,2013-08-16 14:11:00,
2013-08-16 07:42:00,59.0,59.0,-100.00,NNE,16,0.0,1.0,99,0.00,,,0.00,12.000000,,2013-08-16 14:42:00,
2013-08-16 07:52:00,59.0,59.0,-100.00,NNE,16,0.0,1.0,99,0.00,,,0.00,12.000000,,2013-08-16 14:52:00,
2013-08-16 08:01:00,59.0,59.0,-100.00,NNE,16,0.0,1.0,99,0.00,,,0.00,12.000000,,2013-08-16 15:01:00,
2013-08-16 08:12:00,59.0,59.0,-100.00,NNE,16,0.0,1.0,99,0.00,,,0.00,12.000000,,2013-08-16 15:12:00,
2013-08-16 08:13:00,61.0,60.0,-100.00,NNE,27,0.0,1.0,98,0.00,,,0.00,68.000000,,2013-08-16 15:13:00,
2013-08-16 08:43:00,61.0,60.0,-100.00,NNE,27,0.0,1.0,98,0.00,,,0.00,68.000000,,2013-08-16 15:43:00,
2013-08-16 08:56:00,61.0,60.0,-100.00,NNE,27,0.0,1.0,98,0.00,,,0.00,68.000000,,2013-08-16 15:56:00,
2013-08-16 09:04:00,61.0,60.0,-100.00,NNE,27,0.0,1.0,98,0.00,,,0.00,68.000000,,2013-08-16 16:04:00,
2013-08-16 09:44:00,64.0,61.0,-100.00,WNW,293,2.0,3.0,89,0.00,,,0.00,198.000000,,2013-08-16 16:44:00,
2013-08-16 09:57:00,64.0,61.0,-100.00,WNW,293,2.0,3.0,89,0.00,,,0.00,198.000000,,2013-08-16 16:57:00,
2013-08-16 10:03:00,64.0,61.0,-100.00,WNW,293,2.0,3.0,89,0.00,,,0.00,198.000000,,2013-08-16 17:03:00,
2013-08-16 10:12:00,64.0,61.0,-100.00,WNW,293,2.0,3.0,89,0.00,,,0.00,198.000000,,2013-08-16 17:12:00,
2013-08-16 10:13:00,65.0,61.0,-100.00,West,266,2.0,4.0,86,0.00,,,0.00,257.000000,,2013-08-16 17:13:00,
2013-08-16 10:47:00,65.0,61.0,-100.00,West,266,2.0,4.0,86,0.00,,,0.00,257.000000,,2013-08-16 17:47:00,
2013-08-16 11:00:00,65.0,61.0,-100.00,West,266,2.0,4.0,86,0.00,,,0.00,257.000000,,2013-08-16 18:00:00,
2013-08-16 11:06:00,65.0,61.0,-100.00,West,266,2.0,4.0,86,0.00,,,0.00,257.000000,,2013-08-16 18:06:00,
2013-08-16 11:13:00,67.0,60.0,-100.00,West,275,2.0,4.0,79,0.00,,,0.00,367.000000,,2013-08-16 18:13:00,
2013-08-16 11:50:00,-999.0,-99.9,-100.00,West,275,2.0,4.0,79,0.00,,,0.00,367.000000,,2013-08-16 18:50:00,
2013-08-16 12:02:00,67.0,60.0,-100.00,West,275,2.0,4.0,79,0.00,,,0.00,367.000000,,2013-08-16 19:02:00,
2013-08-16 13:11:00,71.0,59.0,-100.00,West,266,3.0,5.0,67,0.00,,,0.00,665.000000,,2013-08-16 20:11:00,
2013-08-16 13:44:00,72.0,59.0,-100.00,SW,231,3.0,5.0,63,0.00,,,0.00,913.000000,,2013-08-16 20:44:00,
2013-08-16 13:52:00,72.0,59.0,-100.00,SW,231,3.0,5.0,63,0.00,,,0.00,913.000000,,2013-08-16 20:52:00,
2013-08-16 14:01:00,72.0,59.0,-100.00,SW,231,3.0,5.0,63,0.00,,,0.00,913.000000,,2013-08-16 21:01:00,
2013-08-16 14:11:00,72.0,59.0,-100.00,SW,231,3.0,5.0,63,0.00,,,0.00,913.000000,,2013-08-16 21:11:00,
2013-08-16 14:13:00,73.0,58.0,-100.00,WSW,257,4.0,6.0,59,0.00,,,0.00,946.000000,,2013-08-16 21:13:00,
2013-08-16 14:40:00,-999.0,-99.9,-100.00,WSW,257,4.0,6.0,-999,0.00,,,0.00,946.000000,,2013-08-16 21:40:00,
2013-08-16 14:54:00,73.0,58.0,-100.00,WSW,257,4.0,6.0,59,0.00,,,0.00,946.000000,,2013-08-16 21:54:00,
2013-08-16 15:07:00,73.0,58.0,-100.00,WSW,257,4.0,6.0,59,0.00,,,0.00,946.000000,,2013-08-16 22:07:00,
2013-08-16 15:43:00,73.0,55.0,-100.00,West,267,3.0,6.0,54,0.00,,,0.00,879.000000,,2013-08-16 22:43:00,
2013-08-16 15:52:00,73.0,55.0,-100.00,West,267,3.0,6.0,54,0.00,,,0.00,879.000000,,2013-08-16 22:52:00,
2013-08-16 16:09:00,73.0,55.0,-100.00,West,267,3.0,6.0,54,0.00,,,0.00,879.000000,,2013-08-16 23:09:00,
2013-08-16 16:42:00,72.0,56.0,-100.00,West,269,4.0,7.0,58,0.00,,,0.00,760.000000,,2013-08-16 23:42:00,
2013-08-16 16:52:00,72.0,56.0,-100.00,West,269,4.0,7.0,58,0.00,,,0.00,760.000000,,2013-08-16 23:52:00,
2013-08-16 17:01:00,72.0,56.0,-100.00,West,269,4.0,7.0,58,0.00,,,0.00,760.000000,,2013-08-17 00:01:00,
2013-08-16 17:11:00,72.0,56.0,-100.00,West,269,4.0,7.0,58,0.00,,,0.00,760.000000,,2013-08-17 00:11:00,
2013-08-16 17:42:00,71.0,56.0,-100.00,NW,309,3.0,6.0,60,0.00,,,0.00,598.000000,,2013-08-17 00:42:00,
2013-08-16 17:52:00,71.0,56.0,-100.00,NW,309,3.0,6.0,60,0.00,,,0.00,598.000000,,2013-08-17 00:52:00,
2013-08-16 18:01:00,71.0,56.0,-100.00,NW,309,3.0,6.0,60,0.00,,,0.00,598.000000,,2013-08-17 01:01:00,
2013-08-16 18:11:00,71.0,56.0,-100.00,NW,309,3.0,6.0,60,0.00,,,0.00,598.000000,,2013-08-17 01:11:00,
2013-08-16 18:42:00,69.0,57.0,-100.00,WNW,294,2.0,5.0,66,0.00,,,0.00,403.000000,,2013-08-17 01:42:00,
2013-08-16 18:52:00,69.0,57.0,-100.00,WNW,294,2.0,5.0,66,0.00,,,0.00,403.000000,,2013-08-17 01:52:00,
2013-08-16 19:01:00,69.0,57.0,-100.00,WNW,294,2.0,5.0,66,0.00,,,0.00,403.000000,,2013-08-17 02:01:00,
2013-08-16 19:11:00,69.0,57.0,-100.00,WNW,294,2.0,5.0,66,0.00,,,0.00,403.000000,,2013-08-17 02:11:00,
2013-08-16 19:42:00,69.0,57.0,-100.00,West,281,2.0,4.0,65,0.00,,,0.00,208.000000,,2013-08-17 02:42:00,
2013-08-16 19:52:00,69.0,57.0,-100.00,West,281,2.0,4.0,65,0.00,,,0.00,208.000000,,2013-08-17 02:52:00,
2013-08-16 20:01:00,69.0,57.0,-100.00,West,281,2.0,4.0,65,0.00,,,0.00,208.000000,,2013-08-17 03:01:00,
2013-08-16 20:11:00,69.0,57.0,-100.00,West,281,2.0,4.0,65,0.00,,,0.00,208.000000,,2013-08-17 03:11:00,
2013-08-16 20:43:00,64.0,58.0,-100.00,WSW,239,1.0,3.0,80,0.00,,,0.00,41.000000,,2013-08-17 03:43:00,
2013-08-16 20:53:00,64.0,58.0,-100.00,WSW,239,1.0,3.0,80,0.00,,,0.00,41.000000,,2013-08-17 03:53:00,
2013-08-16 21:03:00,64.0,58.0,-100.00,WSW,239,1.0,3.0,80,0.00,,,0.00,41.000000,,2013-08-17 04:03:00,
2013-08-16 21:12:00,64.0,58.0,-100.00,WSW,239,1.0,3.0,80,0.00,,,0.00,41.000000,,2013-08-17 04:12:00,
2013-08-16 21:44:00,60.0,56.0,-100.00,SSW,200,0.0,2.0,86,0.00,,,0.00,1.000000,,2013-08-17 04:44:00,
2013-08-16 21:53:00,60.0,56.0,-100.00,SSW,200,0.0,2.0,86,0.00,,,0.00,1.000000,,2013-08-17 04:53:00,
2013-08-16 22:03:00,60.0,56.0,-100.00,SSW,200,0.0,2.0,86,0.00,,,0.00,1.000000,,2013-08-17 05:03:00,
2013-08-16 22:12:00,60.0,56.0,-100.00,SSW,200,0.0,2.0,86,0.00,,,0.00,1.000000,,2013-08-17 05:12:00,
2013-08-16 22:42:00,58.0,54.0,-100.00,West,273,1.0,2.0,88,0.00,,,0.00,0.000000,,2013-08-17 05:42:00,
2013-08-16 22:52:00,58.0,54.0,-100.00,West,273,1.0,2.0,88,0.00,,,0.00,0.000000,,2013-08-17 05:52:00,
2013-08-16 23:01:00,58.0,54.0,-100.00,West,273,1.0,2.0,88,0.00,,,0.00,0.000000,,2013-08-17 06:01:00,
2013-08-16 23:12:00,58.0,54.0,-100.00,West,273,1.0,2.0,88,0.00,,,0.00,0.000000,,2013-08-17 06:12:00,
2013-08-16 23:42:00,58.0,54.0,-100.00,NE,52,0.0,2.0,88,0.00,,,0.00,0.000000,,2013-08-17 06:42:00,
2013-08-16 23:52:00,58.0,54.0,-100.00,NE,52,0.0,2.0,88,0.00,,,0.00,0.000000,,2013-08-17 06:52:00,